Wetterdaten: Montag, 07.12.2015
Datum Zeit Temp. A. Feuchte A. Luftdruck Regen Wind Richtung Richtung Sonnenschein ET UV Solar Taupunkt Windchill Windben Empfang
07.12.2015 00:00 0,0 C 99 % 1034,5 hPa 0,0 l/m 0,5 km/h (0 Bft) SW 217 0 min 0,000 mm 0,0 UV-I 0 W/m -0,1 C 0,0 C 3,2 km/h (1 Bft) 99,06 %
07.12.2015 00:05 0,1 C 99 % 1034,5 hPa 0,0 l/m 0,1 km/h (0 Bft) SW 217 0 min 0,000 mm 0,0 UV-I 0 W/m -0,0 C 0,1 C 1,6 km/h (1 Bft) 99,09 %
07.12.2015 00:10 0,0 C 99 % 1034,6 hPa 0,0 l/m 0,8 km/h (0 Bft) W 279 0 min 0,000 mm 0,0 UV-I 0 W/m -0,1 C 0,0 C 3,2 km/h (1 Bft) 97,44 %
07.12.2015 00:15 0,0 C 99 % 1034,6 hPa 0,0 l/m 0,1 km/h (0 Bft) W 279 0 min 0,000 mm 0,0 UV-I 0 W/m -0,1 C 0,0 C 1,6 km/h (1 Bft) 95,76 %
07.12.2015 00:20 0,0 C 99 % 1034,8 hPa 0,0 l/m 0,4 km/h (0 Bft) W-NW 296 0 min 0,000 mm 0,0 UV-I 0 W/m -0,1 C 0,0 C 3,2 km/h (1 Bft) 98,31 %
07.12.2015 00:25 -0,1 C 99 % 1034,7 hPa 0,0 l/m 0,4 km/h (0 Bft) W-NW 296 0 min 0,000 mm 0,0 UV-I 0 W/m -0,2 C -0,1 C 3,2 km/h (1 Bft) 95,73 %
07.12.2015 00:30 -0,1 C 99 % 1034,7 hPa 0,0 l/m 0,5 km/h (0 Bft) W-NW 296 0 min 0,000 mm 0,0 UV-I 0 W/m -0,2 C -0,1 C 3,2 km/h (1 Bft) 95,76 %
07.12.2015 00:35 -0,1 C 99 % 1034,8 hPa 0,0 l/m 0,2 km/h (0 Bft) W-NW 296 0 min 0,000 mm 0,0 UV-I 0 W/m -0,2 C -0,1 C 1,6 km/h (1 Bft) 96,67 %
07.12.2015 00:40 -0,1 C 99 % 1034,9 hPa 0,0 l/m 0,0 km/h (0 Bft) W-NW 296 0 min 0,000 mm 0,0 UV-I 0 W/m -0,2 C -0,1 C 1,6 km/h (1 Bft) 96,33 %
07.12.2015 00:45 -0,2 C 99 % 1035,0 hPa 0,0 l/m 0,1 km/h (0 Bft) W-NW 297 0 min 0,000 mm 0,0 UV-I 0 W/m -0,3 C -0,2 C 1,6 km/h (1 Bft) 98,31 %
07.12.2015 00:50 -0,2 C 99 % 1035,0 hPa 0,0 l/m 0,2 km/h (0 Bft) W-NW 297 0 min 0,000 mm 0,0 UV-I 0 W/m -0,3 C -0,2 C 3,2 km/h (1 Bft) 100,00 %
07.12.2015 00:55 -0,2 C 99 % 1035,0 hPa 0,0 l/m 0,9 km/h (0 Bft) S-SW 210 0 min 0,000 mm 0,0 UV-I 0 W/m -0,3 C -0,2 C 3,2 km/h (1 Bft) 98,31 %
07.12.2015 01:00 -0,3 C 99 % 1035,0 hPa 0,0 l/m 0,6 km/h (0 Bft) S 174 0 min 0,000 mm 0,0 UV-I 0 W/m -0,4 C -0,3 C 3,2 km/h (1 Bft) 96,67 %
07.12.2015 01:05 -0,3 C 99 % 1035,0 hPa 0,0 l/m 1,6 km/h (1 Bft) S-SO 155 0 min 0,000 mm 0,0 UV-I 0 W/m -0,4 C -0,3 C 4,8 km/h (1 Bft) 100,00 %
07.12.2015 01:10 -0,3 C 99 % 1035,0 hPa 0,0 l/m 2,5 km/h (1 Bft) S-SO 165 0 min 0,000 mm 0,0 UV-I 0 W/m -0,4 C -0,3 C 6,4 km/h (2 Bft) 96,61 %
07.12.2015 01:15 -0,3 C 99 % 1035,2 hPa 0,0 l/m 0,8 km/h (0 Bft) S-SO 165 0 min 0,000 mm 0,0 UV-I 0 W/m -0,4 C -0,3 C 3,2 km/h (1 Bft) 99,15 %
07.12.2015 01:20 -0,3 C 99 % 1035,2 hPa 0,0 l/m 2,1 km/h (1 Bft) S 169 0 min 0,000 mm 0,0 UV-I 0 W/m -0,4 C -0,3 C 6,4 km/h (2 Bft) 99,15 %
07.12.2015 01:25 -0,3 C 99 % 1035,2 hPa 0,0 l/m 2,8 km/h (1 Bft) S-SO 162 0 min 0,000 mm 0,0 UV-I 0 W/m -0,4 C -0,3 C 6,4 km/h (2 Bft) 97,25 %
07.12.2015 01:30 -0,3 C 99 % 1035,1 hPa 0,0 l/m 1,7 km/h (1 Bft) S-SO 160 0 min 0,000 mm 0,0 UV-I 0 W/m -0,4 C -0,3 C 3,2 km/h (1 Bft) 100,00 %
07.12.2015 01:35 -0,5 C 99 % 1035,1 hPa 0,0 l/m 2,6 km/h (1 Bft) S 171 0 min 0,000 mm 0,0 UV-I 0 W/m -0,6 C -0,5 C 6,4 km/h (2 Bft) 100,00 %
07.12.2015 01:40 -0,6 C 99 % 1035,2 hPa 0,0 l/m 1,3 km/h (1 Bft) S 171 0 min 0,000 mm 0,0 UV-I 0 W/m -0,7 C -0,6 C 3,2 km/h (1 Bft) 98,31 %
07.12.2015 01:45 -0,6 C 99 % 1035,4 hPa 0,0 l/m 1,2 km/h (1 Bft) S 171 0 min 0,000 mm 0,0 UV-I 0 W/m -0,7 C -0,6 C 3,2 km/h (1 Bft) 99,15 %
07.12.2015 01:50 -0,7 C 99 % 1035,5 hPa 0,0 l/m 0,2 km/h (0 Bft) S 171 0 min 0,000 mm 0,0 UV-I 0 W/m -0,8 C -0,7 C 1,6 km/h (1 Bft) 100,00 %
07.12.2015 01:55 -0,7 C 99 % 1035,6 hPa 0,0 l/m 0,5 km/h (0 Bft) S 171 0 min 0,000 mm 0,0 UV-I 0 W/m -0,8 C -0,7 C 1,6 km/h (1 Bft) 98,29 %
07.12.2015 02:00 -0,7 C 99 % 1035,7 hPa 0,0 l/m 0,3 km/h (0 Bft) S 171 0 min 0,000 mm 0,0 UV-I 0 W/m -0,8 C -0,7 C 1,6 km/h (1 Bft) 99,15 %
07.12.2015 02:05 -0,7 C 99 % 1035,7 hPa 0,0 l/m 0,7 km/h (0 Bft) S 171 0 min 0,000 mm 0,0 UV-I 0 W/m -0,8 C -0,7 C 3,2 km/h (1 Bft) 99,15 %
07.12.2015 02:10 -0,8 C 99 % 1035,7 hPa 0,0 l/m 0,9 km/h (0 Bft) S 171 0 min 0,000 mm 0,0 UV-I 0 W/m -0,9 C -0,8 C 3,2 km/h (1 Bft) 98,33 %
07.12.2015 02:15 -0,8 C 99 % 1035,7 hPa 0,0 l/m 1,3 km/h (1 Bft) S 171 0 min 0,000 mm 0,0 UV-I 0 W/m -0,9 C -0,8 C 3,2 km/h (1 Bft) 97,46 %
07.12.2015 02:20 -0,8 C 99 % 1035,8 hPa 0,0 l/m 0,7 km/h (0 Bft) S 171 0 min 0,000 mm 0,0 UV-I 0 W/m -0,9 C -0,8 C 1,6 km/h (1 Bft) 95,00 %
07.12.2015 02:25 -0,8 C 99 % 1035,8 hPa 0,0 l/m 0,0 km/h (0 Bft) S 171 0 min 0,000 mm 0,0 UV-I 0 W/m -0,9 C -0,8 C 0,0 km/h (0 Bft) 97,46 %
07.12.2015 02:30 -0,8 C 99 % 1035,7 hPa 0,0 l/m 0,0 km/h (0 Bft) S 171 0 min 0,000 mm 0,0 UV-I 0 W/m -0,9 C -0,8 C 0,0 km/h (0 Bft) 97,46 %
07.12.2015 02:35 -0,9 C 99 % 1035,7 hPa 0,0 l/m 0,0 km/h (0 Bft) S 171 0 min 0,000 mm 0,0 UV-I 0 W/m -1,0 C -0,9 C 0,0 km/h (0 Bft) 96,19 %
07.12.2015 02:40 -0,9 C 99 % 1035,6 hPa 0,0 l/m 0,2 km/h (0 Bft) S 171 0 min 0,000 mm 0,0 UV-I 0 W/m -1,0 C -0,9 C 1,6 km/h (1 Bft) 96,61 %
07.12.2015 02:45 -1,0 C 99 % 1035,7 hPa 0,0 l/m 0,1 km/h (0 Bft) S 171 0 min 0,000 mm 0,0 UV-I 0 W/m -1,1 C -1,0 C 1,6 km/h (1 Bft) 100,00 %
07.12.2015 02:50 -1,1 C 99 % 1035,8 hPa 0,0 l/m 0,1 km/h (0 Bft) S 171 0 min 0,000 mm 0,0 UV-I 0 W/m -1,2 C -1,1 C 1,6 km/h (1 Bft) 96,58 %
07.12.2015 02:55 -1,1 C 99 % 1035,8 hPa 0,0 l/m 0,0 km/h (0 Bft) S 171 0 min 0,000 mm 0,0 UV-I 0 W/m -1,2 C -1,1 C 0,0 km/h (0 Bft) 98,31 %
07.12.2015 03:00 -1,1 C 99 % 1035,7 hPa 0,0 l/m 0,7 km/h (0 Bft) S 171 0 min 0,000 mm 0,0 UV-I 0 W/m -1,2 C -1,1 C 3,2 km/h (1 Bft) 98,31 %
07.12.2015 03:05 -1,2 C 99 % 1035,7 hPa 0,0 l/m 1,8 km/h (1 Bft) S 171 0 min 0,000 mm 0,0 UV-I 0 W/m -1,3 C -1,2 C 6,4 km/h (2 Bft) 97,44 %
07.12.2015 03:10 -1,2 C 99 % 1035,7 hPa 0,0 l/m 2,5 km/h (1 Bft) S 171 0 min 0,000 mm 0,0 UV-I 0 W/m -1,3 C -1,2 C 6,4 km/h (2 Bft) 98,35 %
07.12.2015 03:15 -1,1 C 99 % 1035,5 hPa 0,0 l/m 2,3 km/h (1 Bft) S 171 0 min 0,000 mm 0,0 UV-I 0 W/m -1,2 C -1,1 C 6,4 km/h (2 Bft) 98,29 %
07.12.2015 03:20 -1,2 C 99 % 1035,5 hPa 0,0 l/m 2,3 km/h (1 Bft) S 171 0 min 0,000 mm 0,0 UV-I 0 W/m -1,3 C -1,2 C 6,4 km/h (2 Bft) 99,13 %
07.12.2015 03:25 -1,2 C 99 % 1035,6 hPa 0,0 l/m 0,6 km/h (0 Bft) S 171 0 min 0,000 mm 0,0 UV-I 0 W/m -1,3 C -1,2 C 1,6 km/h (1 Bft) 99,17 %
07.12.2015 03:30 -1,2 C 99 % 1035,5 hPa 0,0 l/m 0,9 km/h (0 Bft) S 171 0 min 0,000 mm 0,0 UV-I 0 W/m -1,3 C -1,2 C 1,6 km/h (1 Bft) 99,15 %
07.12.2015 03:35 -1,2 C 99 % 1035,5 hPa 0,0 l/m 0,4 km/h (0 Bft) S 171 0 min 0,000 mm 0,0 UV-I 0 W/m -1,3 C -1,2 C 1,6 km/h (1 Bft) 100,00 %
07.12.2015 03:40 -1,2 C 99 % 1035,5 hPa 0,0 l/m 0,2 km/h (0 Bft) S 171 0 min 0,000 mm 0,0 UV-I 0 W/m -1,3 C -1,2 C 1,6 km/h (1 Bft) 99,15 %
07.12.2015 03:45 -1,1 C 99 % 1035,5 hPa 0,0 l/m 1,1 km/h (1 Bft) S 171 0 min 0,000 mm 0,0 UV-I 0 W/m -1,2 C -1,1 C 3,2 km/h (1 Bft) 98,29 %
07.12.2015 03:50 -1,1 C 99 % 1035,5 hPa 0,0 l/m 1,8 km/h (1 Bft) S 171 0 min 0,000 mm 0,0 UV-I 0 W/m -1,2 C -1,1 C 3,2 km/h (1 Bft) 99,17 %
07.12.2015 03:55 -1,0 C 98 % 1035,5 hPa 0,0 l/m 1,9 km/h (1 Bft) S 171 0 min 0,000 mm 0,0 UV-I 0 W/m -1,3 C -1,0 C 6,4 km/h (2 Bft) 99,17 %
07.12.2015 04:00 -0,9 C 98 % 1035,5 hPa 0,0 l/m 3,2 km/h (1 Bft) S 171 0 min 0,000 mm 0,0 UV-I 0 W/m -1,2 C -0,9 C 6,4 km/h (2 Bft) 100,00 %
07.12.2015 04:05 -0,8 C 99 % 1035,5 hPa 0,0 l/m 3,0 km/h (1 Bft) S 170 0 min 0,000 mm 0,0 UV-I 0 W/m -0,9 C -0,8 C 6,4 km/h (2 Bft) 96,30 %
07.12.2015 04:10 -0,8 C 99 % 1035,6 hPa 0,0 l/m 1,2 km/h (1 Bft) S 170 0 min 0,000 mm 0,0 UV-I 0 W/m -0,9 C -0,8 C 3,2 km/h (1 Bft) 95,73 %
07.12.2015 04:15 -0,7 C 98 % 1035,6 hPa 0,0 l/m 0,4 km/h (0 Bft) S 170 0 min 0,000 mm 0,0 UV-I 0 W/m -1,0 C -0,7 C 1,6 km/h (1 Bft) 96,69 %
07.12.2015 04:20 -0,7 C 98 % 1035,6 hPa 0,0 l/m 3,2 km/h (1 Bft) S-SO 168 0 min 0,000 mm 0,0 UV-I 0 W/m -1,0 C -0,7 C 8,0 km/h (2 Bft) 95,73 %
07.12.2015 04:25 -0,7 C 99 % 1035,4 hPa 0,0 l/m 6,9 km/h (2 Bft) S-SO 167 0 min 0,000 mm 0,0 UV-I 0 W/m -0,8 C -1,2 C 9,7 km/h (2 Bft) 96,23 %
07.12.2015 04:30 -0,6 C 99 % 1035,3 hPa 0,0 l/m 5,3 km/h (1 Bft) S-SO 167 0 min 0,000 mm 0,0 UV-I 0 W/m -0,7 C -0,6 C 9,7 km/h (2 Bft) 97,46 %
07.12.2015 04:35 -0,6 C 99 % 1035,5 hPa 0,0 l/m 0,5 km/h (0 Bft) S-SO 167 0 min 0,000 mm 0,0 UV-I 0 W/m -0,7 C -0,6 C 6,4 km/h (2 Bft) 93,33 %
07.12.2015 04:40 -0,5 C 98 % 1035,7 hPa 0,0 l/m 1,3 km/h (1 Bft) S-SO 167 0 min 0,000 mm 0,0 UV-I 0 W/m -0,8 C -0,5 C 6,4 km/h (2 Bft) 98,31 %
07.12.2015 04:45 -0,4 C 98 % 1035,9 hPa 0,0 l/m 2,5 km/h (1 Bft) N-NW 327 0 min 0,000 mm 0,0 UV-I 0 W/m -0,7 C -0,4 C 8,0 km/h (2 Bft) 98,31 %
07.12.2015 04:50 -0,3 C 98 % 1035,8 hPa 0,0 l/m 1,4 km/h (1 Bft) N-NW 327 0 min 0,000 mm 0,0 UV-I 0 W/m -0,6 C -0,3 C 6,4 km/h (2 Bft) 95,83 %
07.12.2015 04:55 -0,2 C 99 % 1035,7 hPa 0,0 l/m 2,5 km/h (1 Bft) N-NW 327 0 min 0,000 mm 0,0 UV-I 0 W/m -0,3 C -0,2 C 6,4 km/h (2 Bft) 98,31 %
07.12.2015 05:00 -0,2 C 99 % 1035,7 hPa 0,0 l/m 3,5 km/h (1 Bft) N-NW 327 0 min 0,000 mm 0,0 UV-I 0 W/m -0,3 C -0,2 C 6,4 km/h (2 Bft) 99,15 %
07.12.2015 05:05 -0,2 C 99 % 1035,7 hPa 0,0 l/m 2,8 km/h (1 Bft) N-NW 327 0 min 0,000 mm 0,0 UV-I 0 W/m -0,3 C -0,2 C 4,8 km/h (1 Bft) 95,76 %
07.12.2015 05:10 -0,2 C 98 % 1035,6 hPa 0,0 l/m 2,9 km/h (1 Bft) N-NW 327 0 min 0,000 mm 0,0 UV-I 0 W/m -0,5 C -0,2 C 4,8 km/h (1 Bft) 100,00 %
07.12.2015 05:15 -0,1 C 98 % 1035,6 hPa 0,0 l/m 1,8 km/h (1 Bft) N-NW 327 0 min 0,000 mm 0,0 UV-I 0 W/m -0,4 C -0,1 C 3,2 km/h (1 Bft) 99,21 %
07.12.2015 05:20 -0,1 C 98 % 1035,7 hPa 0,0 l/m 0,5 km/h (0 Bft) N-NW 327 0 min 0,000 mm 0,0 UV-I 0 W/m -0,4 C -0,1 C 3,2 km/h (1 Bft) 97,27 %
07.12.2015 05:25 -0,1 C 98 % 1035,7 hPa 0,0 l/m 0,0 km/h (0 Bft) N-NW 327 0 min 0,000 mm 0,0 UV-I 0 W/m -0,4 C -0,1 C 0,0 km/h (0 Bft) 100,00 %
07.12.2015 05:30 -0,1 C 98 % 1035,8 hPa 0,0 l/m 0,1 km/h (0 Bft) N-NW 327 0 min 0,000 mm 0,0 UV-I 0 W/m -0,4 C -0,1 C 1,6 km/h (1 Bft) 100,00 %
07.12.2015 05:35 0,0 C 99 % 1035,7 hPa 0,0 l/m 1,5 km/h (1 Bft) N-NW 327 0 min 0,000 mm 0,0 UV-I 0 W/m -0,1 C 0,0 C 3,2 km/h (1 Bft) 96,61 %
07.12.2015 05:40 0,1 C 99 % 1035,9 hPa 0,0 l/m 1,0 km/h (0 Bft) N-NW 327 0 min 0,000 mm 0,0 UV-I 0 W/m -0,0 C 0,1 C 4,8 km/h (1 Bft) 100,00 %
07.12.2015 05:45 0,1 C 99 % 1035,7 hPa 0,0 l/m 1,1 km/h (1 Bft) S 171 0 min 0,000 mm 0,0 UV-I 0 W/m -0,0 C 0,1 C 6,4 km/h (2 Bft) 98,33 %
07.12.2015 05:50 0,1 C 99 % 1035,7 hPa 0,0 l/m 4,6 km/h (1 Bft) S-SO 165 0 min 0,000 mm 0,0 UV-I 0 W/m -0,0 C 0,1 C 8,0 km/h (2 Bft) 100,00 %
07.12.2015 05:55 0,1 C 99 % 1035,7 hPa 0,0 l/m 1,0 km/h (0 Bft) S-SO 165 0 min 0,000 mm 0,0 UV-I 0 W/m -0,0 C 0,1 C 3,2 km/h (1 Bft) 100,00 %
07.12.2015 06:00 0,1 C 99 % 1035,7 hPa 0,0 l/m 1,4 km/h (1 Bft) S-SO 165 0 min 0,000 mm 0,0 UV-I 0 W/m -0,0 C 0,1 C 3,2 km/h (1 Bft) 99,15 %
07.12.2015 06:05 0,2 C 99 % 1035,8 hPa 0,0 l/m 0,1 km/h (0 Bft) S-SO 165 0 min 0,000 mm 0,0 UV-I 0 W/m 0,1 C 0,2 C 1,6 km/h (1 Bft) 99,15 %
07.12.2015 06:10 0,2 C 99 % 1036,0 hPa 0,0 l/m 0,6 km/h (0 Bft) S-SO 165 0 min 0,000 mm 0,0 UV-I 0 W/m 0,1 C 0,2 C 3,2 km/h (1 Bft) 98,33 %
07.12.2015 06:15 0,2 C 99 % 1036,1 hPa 0,0 l/m 0,3 km/h (0 Bft) S-SO 165 0 min 0,000 mm 0,0 UV-I 0 W/m 0,1 C 0,2 C 1,6 km/h (1 Bft) 96,61 %
07.12.2015 06:20 0,2 C 99 % 1036,1 hPa 0,0 l/m 0,3 km/h (0 Bft) S-SO 165 0 min 0,000 mm 0,0 UV-I 0 W/m 0,1 C 0,2 C 1,6 km/h (1 Bft) 96,58 %
07.12.2015 06:25 0,2 C 99 % 1036,0 hPa 0,0 l/m 0,1 km/h (0 Bft) S-SO 165 0 min 0,000 mm 0,0 UV-I 0 W/m 0,1 C 0,2 C 1,6 km/h (1 Bft) 96,61 %
07.12.2015 06:30 0,2 C 99 % 1036,2 hPa 0,0 l/m 0,1 km/h (0 Bft) S-SO 165 0 min 0,000 mm 0,0 UV-I 0 W/m 0,1 C 0,2 C 1,6 km/h (1 Bft) 97,25 %
07.12.2015 06:35 0,2 C 99 % 1036,2 hPa 0,0 l/m 0,3 km/h (0 Bft) S-SO 165 0 min 0,000 mm 0,0 UV-I 0 W/m 0,1 C 0,2 C 1,6 km/h (1 Bft) 96,58 %
07.12.2015 06:40 0,2 C 99 % 1036,1 hPa 0,0 l/m 0,8 km/h (0 Bft) S-SO 164 0 min 0,000 mm 0,0 UV-I 0 W/m 0,1 C 0,2 C 1,6 km/h (1 Bft) 96,61 %
07.12.2015 06:45 0,2 C 99 % 1036,1 hPa 0,0 l/m 1,8 km/h (1 Bft) S-SO 161 0 min 0,000 mm 0,0 UV-I 0 W/m 0,1 C 0,2 C 6,4 km/h (2 Bft) 97,52 %
07.12.2015 06:50 0,3 C 99 % 1036,1 hPa 0,0 l/m 2,2 km/h (1 Bft) S-SO 161 0 min 0,000 mm 0,0 UV-I 0 W/m 0,2 C 0,3 C 6,4 km/h (2 Bft) 99,15 %
07.12.2015 06:55 0,3 C 99 % 1036,1 hPa 0,0 l/m 0,2 km/h (0 Bft) S-SO 161 0 min 0,000 mm 0,0 UV-I 0 W/m 0,2 C 0,3 C 1,6 km/h (1 Bft) 99,15 %
07.12.2015 07:00 0,3 C 99 % 1036,0 hPa 0,0 l/m 1,2 km/h (1 Bft) S-SO 161 0 min 0,000 mm 0,0 UV-I 0 W/m 0,2 C 0,3 C 3,2 km/h (1 Bft) 99,15 %
07.12.2015 07:05 0,3 C 99 % 1036,0 hPa 0,0 l/m 2,9 km/h (1 Bft) S-SO 161 0 min 0,000 mm 0,0 UV-I 0 W/m 0,2 C 0,3 C 6,4 km/h (2 Bft) 99,15 %
07.12.2015 07:10 0,3 C 99 % 1036,2 hPa 0,0 l/m 0,7 km/h (0 Bft) S-SO 161 0 min 0,000 mm 0,0 UV-I 0 W/m 0,2 C 0,3 C 3,2 km/h (1 Bft) 100,00 %
07.12.2015 07:15 0,3 C 99 % 1036,2 hPa 0,0 l/m 2,0 km/h (1 Bft) S-SO 161 0 min 0,000 mm 0,0 UV-I 0 W/m 0,2 C 0,3 C 6,4 km/h (2 Bft) 99,15 %
07.12.2015 07:20 0,3 C 99 % 1036,2 hPa 0,0 l/m 1,0 km/h (0 Bft) S-SO 161 0 min 0,000 mm 0,0 UV-I 0 W/m 0,2 C 0,3 C 3,2 km/h (1 Bft) 98,33 %
07.12.2015 07:25 0,3 C 99 % 1036,2 hPa 0,0 l/m 3,0 km/h (1 Bft) S 180 0 min 0,000 mm 0,0 UV-I 0 W/m 0,2 C 0,3 C 8,0 km/h (2 Bft) 100,00 %
07.12.2015 07:30 0,2 C 99 % 1036,3 hPa 0,0 l/m 2,1 km/h (1 Bft) S 180 0 min 0,000 mm 0,0 UV-I 0 W/m 0,1 C 0,2 C 3,2 km/h (1 Bft) 98,29 %
07.12.2015 07:35 0,2 C 99 % 1036,1 hPa 0,0 l/m 3,1 km/h (1 Bft) S-SO 153 0 min 0,000 mm 0,0 UV-I 0 W/m 0,1 C 0,2 C 6,4 km/h (2 Bft) 100,00 %
07.12.2015 07:40 0,2 C 99 % 1036,1 hPa 0,0 l/m 1,9 km/h (1 Bft) S 179 0 min 0,000 mm 0,0 UV-I 5 W/m 0,1 C 0,2 C 9,7 km/h (2 Bft) 98,31 %
07.12.2015 07:45 0,2 C 99 % 1036,3 hPa 0,0 l/m 1,6 km/h (1 Bft) S 169 0 min 0,000 mm 0,0 UV-I 7 W/m 0,1 C 0,2 C 3,2 km/h (1 Bft) 99,15 %
07.12.2015 07:50 0,2 C 99 % 1036,4 hPa 0,0 l/m 0,7 km/h (0 Bft) S-SW 200 0 min 0,000 mm 0,0 UV-I 8 W/m 0,1 C 0,2 C 3,2 km/h (1 Bft) 99,15 %
07.12.2015 07:55 0,1 C 99 % 1036,6 hPa 0,0 l/m 1,8 km/h (1 Bft) S 178 0 min 0,000 mm 0,0 UV-I 10 W/m -0,0 C 0,1 C 4,8 km/h (1 Bft) 97,50 %
07.12.2015 08:00 0,1 C 99 % 1036,8 hPa 0,0 l/m 3,5 km/h (1 Bft) N-NW 339 0 min 0,000 mm 0,0 UV-I 11 W/m -0,0 C 0,1 C 6,4 km/h (2 Bft) 98,21 %
07.12.2015 08:05 0,2 C 99 % 1036,9 hPa 0,0 l/m 3,0 km/h (1 Bft) N-NO 12 0 min 0,000 mm 0,0 UV-I 10 W/m 0,1 C 0,2 C 6,4 km/h (2 Bft) 99,15 %
07.12.2015 08:10 0,2 C 99 % 1037,0 hPa 0,0 l/m 2,5 km/h (1 Bft) N 11 0 min 0,000 mm 0,0 UV-I 9 W/m 0,1 C 0,2 C 4,8 km/h (1 Bft) 99,17 %
07.12.2015 08:15 0,3 C 99 % 1037,0 hPa 0,0 l/m 3,2 km/h (1 Bft) N-NO 12 0 min 0,000 mm 0,0 UV-I 16 W/m 0,2 C 0,3 C 6,4 km/h (2 Bft) 97,25 %
07.12.2015 08:20 0,3 C 99 % 1036,9 hPa 0,0 l/m 3,7 km/h (1 Bft) NO 49 0 min 0,000 mm 0,0 UV-I 22 W/m 0,2 C 0,3 C 6,4 km/h (2 Bft) 97,46 %
07.12.2015 08:25 0,3 C 99 % 1036,9 hPa 0,0 l/m 1,7 km/h (1 Bft) NO 49 0 min 0,000 mm 0,0 UV-I 31 W/m 0,2 C 0,3 C 3,2 km/h (1 Bft) 95,00 %
07.12.2015 08:30 0,2 C 99 % 1036,9 hPa 0,0 l/m 2,7 km/h (1 Bft) O-NO 67 0 min 0,000 mm 0,0 UV-I 46 W/m 0,1 C 0,2 C 4,8 km/h (1 Bft) 95,87 %
07.12.2015 08:35 0,2 C 99 % 1036,8 hPa 0,0 l/m 2,6 km/h (1 Bft) S-SO 160 5 min 0,000 mm 0,0 UV-I 69 W/m 0,1 C 0,2 C 4,8 km/h (1 Bft) 96,49 %
07.12.2015 08:40 0,3 C 99 % 1036,9 hPa 0,0 l/m 1,2 km/h (1 Bft) S-SO 162 5 min 0,000 mm 0,0 UV-I 90 W/m 0,2 C 0,3 C 3,2 km/h (1 Bft) 95,87 %
07.12.2015 08:45 0,3 C 99 % 1036,9 hPa 0,0 l/m 2,0 km/h (1 Bft) S-SO 167 5 min 0,000 mm 0,0 UV-I 94 W/m 0,2 C 0,3 C 4,8 km/h (1 Bft) 96,33 %
07.12.2015 08:50 0,4 C 99 % 1037,0 hPa 0,0 l/m 1,0 km/h (0 Bft) S-SO 164 5 min 0,000 mm 0,0 UV-I 110 W/m 0,3 C 0,4 C 4,8 km/h (1 Bft) 98,29 %
07.12.2015 08:55 0,6 C 99 % 1036,9 hPa 0,0 l/m 0,7 km/h (0 Bft) S-SO 161 0 min 0,000 mm 0,0 UV-I 83 W/m 0,5 C 0,6 C 3,2 km/h (1 Bft) 97,46 %
07.12.2015 09:00 0,6 C 99 % 1036,9 hPa 0,0 l/m 2,2 km/h (1 Bft) S-SO 155 0 min 0,025 mm 0,0 UV-I 76 W/m 0,5 C 0,6 C 4,8 km/h (1 Bft) 97,83 %
07.12.2015 09:05 0,6 C 99 % 1036,9 hPa 0,0 l/m 2,3 km/h (1 Bft) S-SO 157 0 min 0,000 mm 0,0 UV-I 69 W/m 0,5 C 0,6 C 4,8 km/h (1 Bft) 98,04 %
07.12.2015 09:10 0,6 C 99 % 1036,9 hPa 0,0 l/m 2,5 km/h (1 Bft) SO 138 0 min 0,000 mm 0,0 UV-I 64 W/m 0,5 C 0,6 C 4,8 km/h (1 Bft) 100,00 %
07.12.2015 09:15 0,7 C 99 % 1037,0 hPa 0,0 l/m 3,5 km/h (1 Bft) S-SO 156 0 min 0,000 mm 0,0 UV-I 68 W/m 0,6 C 0,7 C 6,4 km/h (2 Bft) 100,00 %
07.12.2015 09:20 0,7 C 99 % 1037,0 hPa 0,0 l/m 2,1 km/h (1 Bft) NW 314 0 min 0,000 mm 0,0 UV-I 66 W/m 0,6 C 0,7 C 6,4 km/h (2 Bft) 98,31 %
07.12.2015 09:25 0,8 C 99 % 1037,0 hPa 0,0 l/m 2,1 km/h (1 Bft) SO 138 0 min 0,000 mm 0,0 UV-I 71 W/m 0,7 C 0,8 C 8,0 km/h (2 Bft) 98,31 %
07.12.2015 09:30 0,9 C 99 % 1037,2 hPa 0,0 l/m 1,1 km/h (1 Bft) S-SO 151 0 min 0,000 mm 0,0 UV-I 85 W/m 0,8 C 0,9 C 4,8 km/h (1 Bft) 100,00 %
07.12.2015 09:35 0,9 C 99 % 1037,0 hPa 0,0 l/m 2,4 km/h (1 Bft) S-SO 154 0 min 0,000 mm 0,0 UV-I 96 W/m 0,8 C 0,9 C 6,4 km/h (2 Bft) 100,00 %
07.12.2015 09:40 1,2 C 99 % 1037,1 hPa 0,0 l/m 2,1 km/h (1 Bft) W 277 0 min 0,000 mm 0,0 UV-I 106 W/m 1,1 C 1,2 C 4,8 km/h (1 Bft) 100,00 %
07.12.2015 09:45 1,3 C 99 % 1037,0 hPa 0,0 l/m 1,9 km/h (1 Bft) SO 133 0 min 0,000 mm 0,0 UV-I 111 W/m 1,2 C 1,3 C 4,8 km/h (1 Bft) 97,46 %
07.12.2015 09:50 1,5 C 99 % 1037,0 hPa 0,0 l/m 1,6 km/h (1 Bft) S-SO 157 0 min 0,000 mm 0,0 UV-I 113 W/m 1,4 C 1,5 C 6,4 km/h (2 Bft) 73,68 %
07.12.2015 09:55 1,6 C 99 % 1036,9 hPa 0,0 l/m 4,8 km/h (1 Bft) S 180 5 min 0,000 mm 0,0 UV-I 151 W/m 1,5 C 1,6 C 9,7 km/h (2 Bft) 99,12 %
07.12.2015 10:00 1,7 C 99 % 1036,9 hPa 0,0 l/m 1,6 km/h (1 Bft) S 180 5 min 0,025 mm 0,0 UV-I 235 W/m 1,6 C 1,7 C 8,0 km/h (2 Bft) 100,00 %
07.12.2015 10:05 2,1 C 99 % 1036,9 hPa 0,0 l/m 1,6 km/h (1 Bft) SO 135 5 min 0,000 mm 0,0 UV-I 239 W/m 2,0 C 2,1 C 4,8 km/h (1 Bft) 100,00 %
07.12.2015 10:10 2,3 C 99 % 1037,0 hPa 0,0 l/m 0,0 km/h (0 Bft) SO 135 5 min 0,000 mm 0,0 UV-I 239 W/m 2,2 C 2,3 C 3,2 km/h (1 Bft) 100,00 %
07.12.2015 10:15 2,6 C 99 % 1037,1 hPa 0,0 l/m 1,6 km/h (1 Bft) N-NW 337 5 min 0,000 mm 0,3 UV-I 246 W/m 2,5 C 2,6 C 4,8 km/h (1 Bft) 100,00 %
07.12.2015 10:25 2,7 C 99 % 1037,1 hPa 0,0 l/m 1,2 km/h (1 Bft) NW 325 10 min 0,001 mm 0,5 UV-I 257 W/m 2,6 C 2,7 C 1,6 km/h (1 Bft) 96,23 %
07.12.2015 10:30 2,9 C 99 % 1037,0 hPa 0,0 l/m 1,6 km/h (1 Bft) NW 313 5 min 0,000 mm 0,5 UV-I 262 W/m 2,8 C 2,9 C 4,8 km/h (1 Bft) 96,52 %
07.12.2015 10:35 3,2 C 99 % 1037,0 hPa 0,0 l/m 0,6 km/h (0 Bft) NW 313 5 min 0,000 mm 0,5 UV-I 268 W/m 3,1 C 3,2 C 1,6 km/h (1 Bft) 96,67 %
07.12.2015 10:40 3,3 C 99 % 1037,0 hPa 0,0 l/m 1,6 km/h (1 Bft) NW 315 5 min 0,000 mm 0,6 UV-I 273 W/m 3,2 C 3,3 C 4,8 km/h (1 Bft) 98,25 %
07.12.2015 10:45 3,6 C 99 % 1036,9 hPa 0,0 l/m 1,1 km/h (1 Bft) N-NW 331 5 min 0,000 mm 0,6 UV-I 274 W/m 3,5 C 3,6 C 3,2 km/h (1 Bft) 98,71 %
07.12.2015 10:50 3,7 C 99 % 1036,9 hPa 0,0 l/m 0,4 km/h (0 Bft) N-NW 331 5 min 0,000 mm 0,6 UV-I 282 W/m 3,6 C 3,7 C 3,2 km/h (1 Bft) 100,00 %
07.12.2015 10:55 3,8 C 99 % 1036,8 hPa 0,0 l/m 0,8 km/h (0 Bft) N-NW 344 5 min 0,000 mm 0,6 UV-I 285 W/m 3,7 C 3,8 C 3,2 km/h (1 Bft) 99,08 %
07.12.2015 11:00 4,0 C 99 % 1036,8 hPa 0,0 l/m 1,3 km/h (1 Bft) N 355 5 min 0,101 mm 0,6 UV-I 287 W/m 3,9 C 4,0 C 6,4 km/h (2 Bft) 100,00 %
07.12.2015 11:05 4,1 C 99 % 1036,7 hPa 0,0 l/m 2,5 km/h (1 Bft) N 5 5 min 0,000 mm 0,6 UV-I 271 W/m 4,0 C 4,1 C 8,0 km/h (2 Bft) 99,15 %
07.12.2015 11:10 4,0 C 99 % 1036,7 hPa 0,0 l/m 1,3 km/h (1 Bft) N 5 5 min 0,000 mm 0,6 UV-I 314 W/m 3,9 C 4,0 C 4,8 km/h (1 Bft) 99,15 %
07.12.2015 11:15 4,1 C 99 % 1036,7 hPa 0,0 l/m 2,3 km/h (1 Bft) N-NO 16 5 min 0,000 mm 0,7 UV-I 302 W/m 4,0 C 4,1 C 6,4 km/h (2 Bft) 99,13 %
07.12.2015 11:20 4,1 C 99 % 1036,6 hPa 0,0 l/m 3,7 km/h (1 Bft) N 5 5 min 0,000 mm 0,7 UV-I 269 W/m 4,0 C 4,1 C 9,7 km/h (2 Bft) 99,15 %
07.12.2015 11:25 4,1 C 99 % 1036,6 hPa 0,0 l/m 3,6 km/h (1 Bft) N-NO 15 5 min 0,000 mm 0,7 UV-I 290 W/m 4,0 C 4,1 C 8,0 km/h (2 Bft) 97,50 %
07.12.2015 11:30 4,2 C 99 % 1036,6 hPa 0,0 l/m 4,6 km/h (1 Bft) N-NO 20 5 min 0,000 mm 0,7 UV-I 303 W/m 4,1 C 4,2 C 11,3 km/h (2 Bft) 99,13 %
07.12.2015 11:35 4,2 C 99 % 1036,5 hPa 0,0 l/m 3,3 km/h (1 Bft) N 5 5 min 0,000 mm 0,7 UV-I 309 W/m 4,1 C 4,2 C 8,0 km/h (2 Bft) 99,11 %
07.12.2015 11:40 4,2 C 99 % 1036,6 hPa 0,0 l/m 2,8 km/h (1 Bft) N 355 5 min 0,000 mm 0,7 UV-I 298 W/m 4,1 C 4,2 C 8,0 km/h (2 Bft) 97,27 %
07.12.2015 11:45 4,1 C 99 % 1036,6 hPa 0,0 l/m 2,5 km/h (1 Bft) N-NW 346 5 min 0,000 mm 0,7 UV-I 237 W/m 4,0 C 4,1 C 6,4 km/h (2 Bft) 95,08 %
07.12.2015 11:50 4,3 C 99 % 1036,5 hPa 0,0 l/m 1,9 km/h (1 Bft) N 9 5 min 0,000 mm 0,7 UV-I 333 W/m 4,2 C 4,3 C 8,0 km/h (2 Bft) 97,50 %
07.12.2015 11:55 4,6 C 99 % 1036,5 hPa 0,0 l/m 4,0 km/h (1 Bft) NO 40 5 min 0,000 mm 0,7 UV-I 311 W/m 4,5 C 4,6 C 8,0 km/h (2 Bft) 96,49 %
07.12.2015 12:00 4,4 C 99 % 1036,5 hPa 0,0 l/m 5,9 km/h (2 Bft) NO 46 5 min 0,102 mm 0,7 UV-I 304 W/m 4,3 C 4,4 C 9,7 km/h (2 Bft) 96,55 %
07.12.2015 12:05 4,3 C 99 % 1036,3 hPa 0,0 l/m 6,0 km/h (2 Bft) NO 40 5 min 0,000 mm 0,7 UV-I 293 W/m 4,2 C 4,3 C 8,0 km/h (2 Bft) 98,37 %
07.12.2015 12:10 4,2 C 98 % 1036,4 hPa 0,0 l/m 6,6 km/h (2 Bft) N 5 5 min 0,000 mm 0,7 UV-I 301 W/m 3,9 C 4,0 C 9,7 km/h (2 Bft) 100,00 %
07.12.2015 12:15 4,0 C 98 % 1036,3 hPa 0,0 l/m 7,1 km/h (2 Bft) NO 39 5 min 0,000 mm 0,5 UV-I 185 W/m 3,7 C 3,4 C 12,9 km/h (3 Bft) 98,35 %
07.12.2015 12:20 3,8 C 98 % 1036,2 hPa 0,0 l/m 6,9 km/h (2 Bft) N-NO 23 5 min 0,000 mm 0,5 UV-I 190 W/m 3,5 C 3,3 C 11,3 km/h (2 Bft) 100,00 %
07.12.2015 12:25 3,7 C 99 % 1036,1 hPa 0,0 l/m 4,7 km/h (1 Bft) N-NO 29 5 min 0,000 mm 0,5 UV-I 187 W/m 3,6 C 3,7 C 6,4 km/h (2 Bft) 100,00 %
07.12.2015 12:30 3,7 C 99 % 1036,0 hPa 0,0 l/m 4,4 km/h (1 Bft) NO 47 5 min 0,000 mm 0,5 UV-I 183 W/m 3,6 C 3,7 C 8,0 km/h (2 Bft) 99,22 %
07.12.2015 12:35 3,7 C 99 % 1036,0 hPa 0,0 l/m 4,0 km/h (1 Bft) NO 43 0 min 0,000 mm 0,5 UV-I 175 W/m 3,6 C 3,7 C 6,4 km/h (2 Bft) 97,46 %
07.12.2015 12:40 3,8 C 99 % 1036,0 hPa 0,0 l/m 3,4 km/h (1 Bft) NO 42 0 min 0,000 mm 0,5 UV-I 161 W/m 3,7 C 3,8 C 8,0 km/h (2 Bft) 98,26 %
07.12.2015 12:45 3,8 C 99 % 1035,9 hPa 0,0 l/m 2,3 km/h (1 Bft) N 9 0 min 0,000 mm 0,5 UV-I 166 W/m 3,7 C 3,8 C 8,0 km/h (2 Bft) 100,00 %
07.12.2015 12:50 4,0 C 99 % 1035,9 hPa 0,0 l/m 1,3 km/h (1 Bft) N-NO 23 5 min 0,000 mm 0,5 UV-I 189 W/m 3,9 C 4,0 C 4,8 km/h (1 Bft) 99,22 %
07.12.2015 12:55 4,1 C 99 % 1035,9 hPa 0,0 l/m 3,9 km/h (1 Bft) O-NO 65 5 min 0,000 mm 0,5 UV-I 190 W/m 4,0 C 4,1 C 6,4 km/h (2 Bft) 99,06 %
07.12.2015 13:00 4,2 C 99 % 1035,8 hPa 0,0 l/m 3,5 km/h (1 Bft) O-NO 64 5 min 0,076 mm 0,5 UV-I 194 W/m 4,1 C 4,2 C 6,4 km/h (2 Bft) 100,00 %
07.12.2015 13:05 4,2 C 99 % 1035,8 hPa 0,0 l/m 2,3 km/h (1 Bft) O-NO 72 5 min 0,000 mm 0,5 UV-I 190 W/m 4,1 C 4,2 C 4,8 km/h (1 Bft) 99,08 %
07.12.2015 13:10 4,4 C 99 % 1035,7 hPa 0,0 l/m 3,1 km/h (1 Bft) SO 130 5 min 0,000 mm 0,5 UV-I 222 W/m 4,3 C 4,4 C 4,8 km/h (1 Bft) 100,00 %
07.12.2015 13:15 4,9 C 99 % 1035,7 hPa 0,0 l/m 2,0 km/h (1 Bft) O-NO 59 5 min 0,000 mm 0,6 UV-I 278 W/m 4,8 C 4,9 C 4,8 km/h (1 Bft) 98,37 %
07.12.2015 13:20 5,0 C 99 % 1035,6 hPa 0,0 l/m 3,3 km/h (1 Bft) NO 43 5 min 0,000 mm 0,6 UV-I 263 W/m 4,9 C 5,0 C 4,8 km/h (1 Bft) 95,76 %
07.12.2015 13:25 5,1 C 99 % 1035,6 hPa 0,0 l/m 2,5 km/h (1 Bft) NO 43 5 min 0,000 mm 0,6 UV-I 247 W/m 5,0 C 5,1 C 4,8 km/h (1 Bft) 98,25 %
07.12.2015 13:30 5,3 C 99 % 1035,6 hPa 0,0 l/m 3,6 km/h (1 Bft) NO 43 5 min 0,000 mm 0,5 UV-I 246 W/m 5,2 C 5,3 C 4,8 km/h (1 Bft) 96,43 %
07.12.2015 13:35 5,3 C 99 % 1035,5 hPa 0,0 l/m 3,5 km/h (1 Bft) O-NO 61 5 min 0,000 mm 0,5 UV-I 239 W/m 5,2 C 5,3 C 4,8 km/h (1 Bft) 97,46 %
07.12.2015 13:40 5,4 C 99 % 1035,5 hPa 0,0 l/m 3,8 km/h (1 Bft) NO 45 5 min 0,000 mm 0,5 UV-I 233 W/m 5,3 C 5,4 C 6,4 km/h (2 Bft) 95,93 %
07.12.2015 13:45 5,5 C 98 % 1035,4 hPa 0,0 l/m 3,7 km/h (1 Bft) NO 51 5 min 0,000 mm 0,5 UV-I 226 W/m 5,2 C 5,5 C 4,8 km/h (1 Bft) 97,32 %
07.12.2015 13:50 5,7 C 98 % 1035,3 hPa 0,0 l/m 2,6 km/h (1 Bft) O-NO 64 5 min 0,000 mm 0,3 UV-I 218 W/m 5,4 C 5,7 C 4,8 km/h (1 Bft) 99,15 %
07.12.2015 13:55 5,9 C 97 % 1035,3 hPa 0,0 l/m 3,7 km/h (1 Bft) NO 49 5 min 0,000 mm 0,0 UV-I 209 W/m 5,5 C 5,9 C 4,8 km/h (1 Bft) 97,56 %
07.12.2015 14:00 6,1 C 97 % 1035,3 hPa 0,0 l/m 3,5 km/h (1 Bft) O-NO 63 5 min 0,102 mm 0,0 UV-I 201 W/m 5,7 C 6,1 C 4,8 km/h (1 Bft) 99,06 %
07.12.2015 14:05 6,1 C 97 % 1035,2 hPa 0,0 l/m 3,3 km/h (1 Bft) O-NO 65 5 min 0,000 mm 0,0 UV-I 192 W/m 5,7 C 6,1 C 4,8 km/h (1 Bft) 98,37 %
07.12.2015 14:10 6,2 C 96 % 1035,2 hPa 0,0 l/m 2,4 km/h (1 Bft) O-NO 65 5 min 0,000 mm 0,0 UV-I 183 W/m 5,6 C 6,2 C 4,8 km/h (1 Bft) 99,17 %
07.12.2015 14:15 6,5 C 97 % 1035,0 hPa 0,0 l/m 2,2 km/h (1 Bft) O-SO 115 5 min 0,000 mm 0,0 UV-I 175 W/m 6,1 C 6,5 C 4,8 km/h (1 Bft) 97,25 %
07.12.2015 14:20 6,7 C 96 % 1034,9 hPa 0,0 l/m 1,9 km/h (1 Bft) O-SO 115 5 min 0,000 mm 0,0 UV-I 165 W/m 6,1 C 6,7 C 3,2 km/h (1 Bft) 99,19 %
07.12.2015 14:25 6,8 C 96 % 1034,8 hPa 0,0 l/m 1,8 km/h (1 Bft) O-SO 120 5 min 0,000 mm 0,0 UV-I 156 W/m 6,2 C 6,8 C 4,8 km/h (1 Bft) 99,13 %
07.12.2015 14:30 6,9 C 96 % 1034,8 hPa 0,0 l/m 3,0 km/h (1 Bft) S-SO 150 5 min 0,000 mm 0,0 UV-I 146 W/m 6,3 C 6,9 C 8,0 km/h (2 Bft) 99,11 %
07.12.2015 14:35 7,1 C 95 % 1034,9 hPa 0,0 l/m 1,2 km/h (1 Bft) S-SO 155 5 min 0,000 mm 0,0 UV-I 136 W/m 6,4 C 7,1 C 3,2 km/h (1 Bft) 100,00 %
07.12.2015 14:40 7,1 C 95 % 1034,8 hPa 0,0 l/m 2,0 km/h (1 Bft) SO 140 5 min 0,000 mm 0,0 UV-I 125 W/m 6,4 C 7,1 C 4,8 km/h (1 Bft) 99,21 %
07.12.2015 14:45 7,1 C 94 % 1034,8 hPa 0,0 l/m 1,8 km/h (1 Bft) SO 127 5 min 0,000 mm 0,0 UV-I 115 W/m 6,2 C 7,1 C 4,8 km/h (1 Bft) 99,07 %
07.12.2015 14:50 7,3 C 94 % 1034,8 hPa 0,0 l/m 1,2 km/h (1 Bft) SO 127 5 min 0,000 mm 0,0 UV-I 104 W/m 6,4 C 7,3 C 3,2 km/h (1 Bft) 98,39 %
07.12.2015 14:55 7,4 C 93 % 1034,8 hPa 0,0 l/m 0,9 km/h (0 Bft) SO 127 5 min 0,000 mm 0,0 UV-I 94 W/m 6,3 C 7,4 C 3,2 km/h (1 Bft) 98,11 %
07.12.2015 15:00 7,3 C 93 % 1034,8 hPa 0,0 l/m 1,9 km/h (1 Bft) SO 127 5 min 0,051 mm 0,0 UV-I 85 W/m 6,2 C 7,3 C 3,2 km/h (1 Bft) 96,77 %
07.12.2015 15:05 7,3 C 93 % 1034,8 hPa 0,0 l/m 0,8 km/h (0 Bft) SO 127 5 min 0,000 mm 0,0 UV-I 76 W/m 6,2 C 7,3 C 3,2 km/h (1 Bft) 96,61 %
07.12.2015 15:10 7,2 C 91 % 1034,8 hPa 0,0 l/m 2,2 km/h (1 Bft) SO 134 5 min 0,000 mm 0,0 UV-I 68 W/m 5,8 C 7,2 C 4,8 km/h (1 Bft) 97,39 %
07.12.2015 15:15 7,1 C 91 % 1034,8 hPa 0,0 l/m 2,2 km/h (1 Bft) O-SO 109 0 min 0,000 mm 0,0 UV-I 59 W/m 5,7 C 7,1 C 4,8 km/h (1 Bft) 97,44 %
07.12.2015 15:20 7,0 C 91 % 1034,8 hPa 0,0 l/m 0,8 km/h (0 Bft) O-SO 109 0 min 0,000 mm 0,0 UV-I 50 W/m 5,6 C 7,0 C 1,6 km/h (1 Bft) 100,00 %
07.12.2015 15:25 6,9 C 92 % 1034,7 hPa 0,0 l/m 0,2 km/h (0 Bft) O-SO 109 0 min 0,000 mm 0,0 UV-I 42 W/m 5,7 C 6,9 C 1,6 km/h (1 Bft) 99,21 %
07.12.2015 15:30 6,9 C 91 % 1034,7 hPa 0,0 l/m 0,1 km/h (0 Bft) O-SO 109 0 min 0,000 mm 0,0 UV-I 34 W/m 5,5 C 6,9 C 1,6 km/h (1 Bft) 99,13 %
07.12.2015 15:35 6,2 C 94 % 1034,7 hPa 0,0 l/m 0,5 km/h (0 Bft) O-SO 109 0 min 0,000 mm 0,0 UV-I 27 W/m 5,3 C 6,2 C 3,2 km/h (1 Bft) 99,15 %
07.12.2015 15:40 6,4 C 93 % 1034,8 hPa 0,0 l/m 1,1 km/h (1 Bft) O-SO 109 0 min 0,000 mm 0,0 UV-I 21 W/m 5,4 C 6,4 C 3,2 km/h (1 Bft) 97,50 %
07.12.2015 15:45 6,5 C 93 % 1034,7 hPa 0,0 l/m 1,5 km/h (1 Bft) O-SO 109 0 min 0,000 mm 0,0 UV-I 17 W/m 5,5 C 6,5 C 3,2 km/h (1 Bft) 98,31 %
07.12.2015 15:50 6,4 C 92 % 1034,7 hPa 0,0 l/m 1,4 km/h (1 Bft) O-SO 109 0 min 0,000 mm 0,0 UV-I 15 W/m 5,2 C 6,4 C 3,2 km/h (1 Bft) 98,21 %
07.12.2015 15:55 6,1 C 93 % 1034,7 hPa 0,0 l/m 2,1 km/h (1 Bft) O-SO 109 5 min 0,000 mm 0,0 UV-I 13 W/m 5,1 C 6,1 C 3,2 km/h (1 Bft) 99,15 %
07.12.2015 16:00 5,6 C 94 % 1034,6 hPa 0,0 l/m 1,2 km/h (1 Bft) O-SO 109 0 min 0,025 mm 0,0 UV-I 11 W/m 4,7 C 5,6 C 3,2 km/h (1 Bft) 100,00 %
07.12.2015 16:05 5,3 C 95 % 1034,6 hPa 0,0 l/m 1,3 km/h (1 Bft) O-SO 110 0 min 0,000 mm 0,0 UV-I 9 W/m 4,6 C 5,3 C 3,2 km/h (1 Bft) 100,00 %
07.12.2015 16:10 5,1 C 96 % 1034,6 hPa 0,0 l/m 0,3 km/h (0 Bft) O-SO 110 0 min 0,000 mm 0,0 UV-I 7 W/m 4,5 C 5,1 C 1,6 km/h (1 Bft) 99,15 %
07.12.2015 16:15 5,0 C 97 % 1034,6 hPa 0,0 l/m 0,4 km/h (0 Bft) O-SO 109 0 min 0,000 mm 0,0 UV-I 5 W/m 4,6 C 5,0 C 1,6 km/h (1 Bft) 100,00 %
07.12.2015 16:20 5,0 C 97 % 1034,6 hPa 0,0 l/m 0,9 km/h (0 Bft) O-SO 109 0 min 0,000 mm 0,0 UV-I 1 W/m 4,6 C 5,0 C 1,6 km/h (1 Bft) 96,83 %
07.12.2015 16:25 4,9 C 96 % 1034,7 hPa 0,0 l/m 0,2 km/h (0 Bft) O-SO 109 0 min 0,000 mm 0,0 UV-I 0 W/m 4,3 C 4,9 C 1,6 km/h (1 Bft) 98,17 %
07.12.2015 16:30 4,6 C 96 % 1034,6 hPa 0,0 l/m 0,5 km/h (0 Bft) O-SO 109 0 min 0,000 mm 0,0 UV-I 0 W/m 4,0 C 4,6 C 1,6 km/h (1 Bft) 99,03 %
07.12.2015 16:35 4,3 C 96 % 1034,7 hPa 0,0 l/m 0,6 km/h (0 Bft) O-SO 109 0 min 0,000 mm 0,0 UV-I 0 W/m 3,7 C 4,3 C 3,2 km/h (1 Bft) 99,24 %
07.12.2015 16:40 4,0 C 96 % 1034,7 hPa 0,0 l/m 2,4 km/h (1 Bft) O-SO 109 0 min 0,000 mm 0,0 UV-I 0 W/m 3,4 C 4,0 C 3,2 km/h (1 Bft) 100,00 %
07.12.2015 16:45 3,4 C 96 % 1034,6 hPa 0,0 l/m 2,7 km/h (1 Bft) O-SO 109 0 min 0,000 mm 0,0 UV-I 0 W/m 2,8 C 3,4 C 4,8 km/h (1 Bft) 99,15 %
07.12.2015 16:50 3,1 C 97 % 1034,6 hPa 0,0 l/m 0,5 km/h (0 Bft) O-SO 109 0 min 0,000 mm 0,0 UV-I 0 W/m 2,7 C 3,1 C 3,2 km/h (1 Bft) 95,00 %
07.12.2015 16:55 3,0 C 97 % 1034,6 hPa 0,0 l/m 1,0 km/h (0 Bft) O-SO 110 0 min 0,000 mm 0,0 UV-I 0 W/m 2,6 C 3,0 C 3,2 km/h (1 Bft) 97,46 %
07.12.2015 17:00 2,6 C 97 % 1034,6 hPa 0,0 l/m 3,3 km/h (1 Bft) O-NO 65 0 min 0,000 mm 0,0 UV-I 0 W/m 2,2 C 2,6 C 4,8 km/h (1 Bft) 97,30 %
07.12.2015 17:05 2,2 C 97 % 1034,6 hPa 0,0 l/m 3,7 km/h (1 Bft) NO 34 0 min 0,000 mm 0,0 UV-I 0 W/m 1,8 C 2,2 C 4,8 km/h (1 Bft) 95,97 %
07.12.2015 17:10 2,0 C 97 % 1034,7 hPa 0,0 l/m 2,0 km/h (1 Bft) N-NO 33 0 min 0,000 mm 0,0 UV-I 0 W/m 1,6 C 2,0 C 4,8 km/h (1 Bft) 96,69 %
07.12.2015 17:15 1,9 C 98 % 1034,7 hPa 0,0 l/m 1,3 km/h (1 Bft) N-NO 33 0 min 0,000 mm 0,0 UV-I 0 W/m 1,6 C 1,9 C 3,2 km/h (1 Bft) 96,49 %
07.12.2015 17:20 1,8 C 98 % 1034,7 hPa 0,0 l/m 0,7 km/h (0 Bft) N-NO 33 0 min 0,000 mm 0,0 UV-I 0 W/m 1,5 C 1,8 C 1,6 km/h (1 Bft) 97,46 %
07.12.2015 17:25 1,7 C 98 % 1034,8 hPa 0,0 l/m 0,8 km/h (0 Bft) N-NO 33 0 min 0,000 mm 0,0 UV-I 0 W/m 1,4 C 1,7 C 3,2 km/h (1 Bft) 97,32 %
07.12.2015 17:30 1,8 C 98 % 1034,7 hPa 0,0 l/m 1,8 km/h (1 Bft) N-NO 33 0 min 0,000 mm 0,0 UV-I 0 W/m 1,5 C 1,8 C 3,2 km/h (1 Bft) 97,56 %
07.12.2015 17:35 1,7 C 98 % 1034,8 hPa 0,0 l/m 0,8 km/h (0 Bft) N-NO 32 0 min 0,000 mm 0,0 UV-I 0 W/m 1,4 C 1,7 C 1,6 km/h (1 Bft) 99,13 %
07.12.2015 17:40 1,8 C 98 % 1034,8 hPa 0,0 l/m 0,6 km/h (0 Bft) N-NO 33 0 min 0,000 mm 0,0 UV-I 0 W/m 1,5 C 1,8 C 3,2 km/h (1 Bft) 99,15 %
07.12.2015 17:45 1,7 C 98 % 1034,9 hPa 0,0 l/m 0,5 km/h (0 Bft) N-NO 33 0 min 0,000 mm 0,0 UV-I 0 W/m 1,4 C 1,7 C 1,6 km/h (1 Bft) 100,00 %
07.12.2015 17:50 1,6 C 98 % 1035,0 hPa 0,0 l/m 3,1 km/h (1 Bft) NO 36 0 min 0,000 mm 0,0 UV-I 0 W/m 1,3 C 1,6 C 4,8 km/h (1 Bft) 100,00 %
07.12.2015 17:55 1,6 C 98 % 1035,0 hPa 0,0 l/m 4,1 km/h (1 Bft) NO 40 0 min 0,000 mm 0,0 UV-I 0 W/m 1,3 C 1,6 C 6,4 km/h (2 Bft) 98,29 %
07.12.2015 18:00 1,8 C 98 % 1035,0 hPa 0,0 l/m 3,2 km/h (1 Bft) O-NO 57 0 min 0,000 mm 0,0 UV-I 0 W/m 1,5 C 1,8 C 4,8 km/h (1 Bft) 99,15 %
07.12.2015 18:05 2,1 C 98 % 1035,0 hPa 0,0 l/m 3,8 km/h (1 Bft) NO 56 0 min 0,000 mm 0,0 UV-I 0 W/m 1,8 C 2,1 C 6,4 km/h (2 Bft) 100,00 %
07.12.2015 18:10 1,8 C 98 % 1035,0 hPa 0,0 l/m 4,1 km/h (1 Bft) NO 42 0 min 0,000 mm 0,0 UV-I 0 W/m 1,5 C 1,8 C 6,4 km/h (2 Bft) 98,41 %
07.12.2015 18:15 1,6 C 98 % 1035,1 hPa 0,0 l/m 4,4 km/h (1 Bft) NO 39 0 min 0,000 mm 0,0 UV-I 0 W/m 1,3 C 1,6 C 6,4 km/h (2 Bft) 99,11 %
07.12.2015 18:20 1,6 C 98 % 1035,2 hPa 0,0 l/m 2,4 km/h (1 Bft) O-NO 59 0 min 0,000 mm 0,0 UV-I 0 W/m 1,3 C 1,6 C 4,8 km/h (1 Bft) 100,00 %
07.12.2015 18:25 1,3 C 98 % 1035,2 hPa 0,0 l/m 1,0 km/h (0 Bft) O-NO 59 0 min 0,000 mm 0,0 UV-I 0 W/m 1,0 C 1,3 C 1,6 km/h (1 Bft) 98,21 %
07.12.2015 18:30 1,1 C 98 % 1035,2 hPa 0,0 l/m 0,6 km/h (0 Bft) O-NO 59 0 min 0,000 mm 0,0 UV-I 0 W/m 0,8 C 1,1 C 1,6 km/h (1 Bft) 96,52 %
07.12.2015 18:35 0,9 C 98 % 1035,2 hPa 0,0 l/m 0,0 km/h (0 Bft) O-NO 59 0 min 0,000 mm 0,0 UV-I 0 W/m 0,6 C 0,9 C 0,0 km/h (0 Bft) 100,00 %
07.12.2015 18:40 0,8 C 98 % 1035,2 hPa 0,0 l/m 0,0 km/h (0 Bft) O-NO 59 0 min 0,000 mm 0,0 UV-I 0 W/m 0,5 C 0,8 C 0,0 km/h (0 Bft) 99,13 %
07.12.2015 18:45 0,8 C 98 % 1035,1 hPa 0,0 l/m 0,1 km/h (0 Bft) O-NO 59 0 min 0,000 mm 0,0 UV-I 0 W/m 0,5 C 0,8 C 1,6 km/h (1 Bft) 99,13 %
07.12.2015 18:50 0,7 C 98 % 1035,2 hPa 0,0 l/m 0,0 km/h (0 Bft) O-NO 59 0 min 0,000 mm 0,0 UV-I 0 W/m 0,4 C 0,7 C 0,0 km/h (0 Bft) 99,21 %
07.12.2015 18:55 0,8 C 98 % 1035,1 hPa 0,0 l/m 0,1 km/h (0 Bft) O-NO 59 0 min 0,000 mm 0,0 UV-I 0 W/m 0,5 C 0,8 C 1,6 km/h (1 Bft) 99,08 %
07.12.2015 19:00 0,9 C 98 % 1035,0 hPa 0,0 l/m 0,0 km/h (0 Bft) O-NO 59 0 min 0,000 mm 0,0 UV-I 0 W/m 0,6 C 0,9 C 0,0 km/h (0 Bft) 94,31 %
07.12.2015 19:05 0,9 C 98 % 1035,0 hPa 0,0 l/m 0,5 km/h (0 Bft) O-NO 59 0 min 0,000 mm 0,0 UV-I 0 W/m 0,6 C 0,9 C 1,6 km/h (1 Bft) 96,43 %
07.12.2015 19:10 0,7 C 98 % 1035,1 hPa 0,0 l/m 0,7 km/h (0 Bft) O-NO 59 0 min 0,000 mm 0,0 UV-I 0 W/m 0,4 C 0,7 C 3,2 km/h (1 Bft) 97,39 %
07.12.2015 19:15 1,2 C 98 % 1035,1 hPa 0,0 l/m 2,9 km/h (1 Bft) O-NO 59 0 min 0,000 mm 0,0 UV-I 0 W/m 0,9 C 1,2 C 4,8 km/h (1 Bft) 97,50 %
07.12.2015 19:20 1,6 C 99 % 1035,1 hPa 0,0 l/m 3,0 km/h (1 Bft) O-NO 66 0 min 0,000 mm 0,0 UV-I 0 W/m 1,5 C 1,6 C 4,8 km/h (1 Bft) 96,52 %
07.12.2015 19:25 1,2 C 98 % 1035,1 hPa 0,0 l/m 3,9 km/h (1 Bft) O-NO 74 0 min 0,000 mm 0,0 UV-I 0 W/m 0,9 C 1,2 C 6,4 km/h (2 Bft) 95,76 %
07.12.2015 19:30 0,8 C 98 % 1035,1 hPa 0,0 l/m 0,7 km/h (0 Bft) O-NO 74 0 min 0,000 mm 0,0 UV-I 0 W/m 0,5 C 0,8 C 3,2 km/h (1 Bft) 96,49 %
07.12.2015 19:35 0,6 C 98 % 1035,1 hPa 0,0 l/m 0,0 km/h (0 Bft) O-NO 74 0 min 0,000 mm 0,0 UV-I 0 W/m 0,3 C 0,6 C 1,6 km/h (1 Bft) 97,52 %
07.12.2015 19:40 0,5 C 98 % 1035,1 hPa 0,0 l/m 0,2 km/h (0 Bft) O-NO 74 0 min 0,000 mm 0,0 UV-I 0 W/m 0,2 C 0,5 C 1,6 km/h (1 Bft) 98,26 %
07.12.2015 19:45 0,7 C 98 % 1035,1 hPa 0,0 l/m 0,3 km/h (0 Bft) O-NO 74 0 min 0,000 mm 0,0 UV-I 0 W/m 0,4 C 0,7 C 1,6 km/h (1 Bft) 98,37 %
07.12.2015 19:50 0,6 C 98 % 1035,1 hPa 0,0 l/m 0,8 km/h (0 Bft) O-NO 74 0 min 0,000 mm 0,0 UV-I 0 W/m 0,3 C 0,6 C 1,6 km/h (1 Bft) 98,35 %
07.12.2015 19:55 0,3 C 98 % 1035,2 hPa 0,0 l/m 0,6 km/h (0 Bft) O-NO 74 0 min 0,000 mm 0,0 UV-I 0 W/m 0,0 C 0,3 C 1,6 km/h (1 Bft) 100,00 %
07.12.2015 20:00 0,3 C 98 % 1035,2 hPa 0,0 l/m 0,2 km/h (0 Bft) O-NO 74 0 min 0,000 mm 0,0 UV-I 0 W/m 0,0 C 0,3 C 1,6 km/h (1 Bft) 98,26 %
07.12.2015 20:05 0,2 C 98 % 1035,2 hPa 0,0 l/m 0,0 km/h (0 Bft) O-NO 74 0 min 0,000 mm 0,0 UV-I 0 W/m -0,1 C 0,2 C 0,0 km/h (0 Bft) 98,26 %
07.12.2015 20:10 0,2 C 98 % 1035,2 hPa 0,0 l/m 0,0 km/h (0 Bft) O-NO 74 0 min 0,000 mm 0,0 UV-I 0 W/m -0,1 C 0,2 C 0,0 km/h (0 Bft) 100,00 %
07.12.2015 20:15 0,2 C 98 % 1035,2 hPa 0,0 l/m 0,2 km/h (0 Bft) O-NO 74 0 min 0,000 mm 0,0 UV-I 0 W/m -0,1 C 0,2 C 1,6 km/h (1 Bft) 99,17 %
07.12.2015 20:20 0,3 C 98 % 1035,2 hPa 0,0 l/m 1,0 km/h (0 Bft) O-NO 74 0 min 0,000 mm 0,0 UV-I 0 W/m 0,0 C 0,3 C 1,6 km/h (1 Bft) 100,00 %
07.12.2015 20:25 0,4 C 98 % 1035,1 hPa 0,0 l/m 1,1 km/h (1 Bft) O-NO 74 0 min 0,000 mm 0,0 UV-I 0 W/m 0,1 C 0,4 C 1,6 km/h (1 Bft) 98,39 %
07.12.2015 20:30 0,4 C 98 % 1035,0 hPa 0,0 l/m 0,9 km/h (0 Bft) O-NO 74 0 min 0,000 mm 0,0 UV-I 0 W/m 0,1 C 0,4 C 1,6 km/h (1 Bft) 99,13 %
07.12.2015 20:35 0,3 C 98 % 1035,1 hPa 0,0 l/m 0,6 km/h (0 Bft) O-NO 74 0 min 0,000 mm 0,0 UV-I 0 W/m 0,0 C 0,3 C 3,2 km/h (1 Bft) 97,50 %
07.12.2015 20:40 0,3 C 98 % 1035,1 hPa 0,0 l/m 0,2 km/h (0 Bft) O-NO 74 0 min 0,000 mm 0,0 UV-I 0 W/m 0,0 C 0,3 C 3,2 km/h (1 Bft) 96,58 %
07.12.2015 20:45 0,2 C 98 % 1035,2 hPa 0,0 l/m 1,0 km/h (0 Bft) O-NO 74 0 min 0,000 mm 0,0 UV-I 0 W/m -0,1 C 0,2 C 3,2 km/h (1 Bft) 100,00 %
07.12.2015 20:50 0,2 C 98 % 1035,1 hPa 0,0 l/m 1,9 km/h (1 Bft) O-NO 74 0 min 0,000 mm 0,0 UV-I 0 W/m -0,1 C 0,2 C 3,2 km/h (1 Bft) 99,12 %
07.12.2015 20:55 0,1 C 98 % 1035,1 hPa 0,0 l/m 3,6 km/h (1 Bft) NO 36 0 min 0,000 mm 0,0 UV-I 0 W/m -0,2 C 0,1 C 4,8 km/h (1 Bft) 100,00 %
07.12.2015 21:00 -0,1 C 98 % 1035,1 hPa 0,0 l/m 4,5 km/h (1 Bft) N-NO 28 0 min 0,000 mm 0,0 UV-I 0 W/m -0,4 C -0,1 C 6,4 km/h (2 Bft) 100,00 %
07.12.2015 21:05 -0,1 C 98 % 1035,1 hPa 0,0 l/m 4,0 km/h (1 Bft) N-NO 22 0 min 0,000 mm 0,0 UV-I 0 W/m -0,4 C -0,1 C 6,4 km/h (2 Bft) 99,08 %
07.12.2015 21:10 0,1 C 98 % 1035,2 hPa 0,0 l/m 1,1 km/h (1 Bft) N-NO 22 0 min 0,000 mm 0,0 UV-I 0 W/m -0,2 C 0,1 C 3,2 km/h (1 Bft) 99,13 %
07.12.2015 21:15 0,0 C 98 % 1035,3 hPa 0,0 l/m 0,3 km/h (0 Bft) N-NO 22 0 min 0,000 mm 0,0 UV-I 0 W/m -0,3 C 0,0 C 1,6 km/h (1 Bft) 95,12 %
07.12.2015 21:20 -0,1 C 98 % 1035,2 hPa 0,0 l/m 0,0 km/h (0 Bft) N-NO 22 0 min 0,000 mm 0,0 UV-I 0 W/m -0,4 C -0,1 C 1,6 km/h (1 Bft) 96,69 %
07.12.2015 21:25 0,0 C 98 % 1035,1 hPa 0,0 l/m 0,0 km/h (0 Bft) N-NO 22 0 min 0,000 mm 0,0 UV-I 0 W/m -0,3 C 0,0 C 0,0 km/h (0 Bft) 94,87 %
07.12.2015 21:30 0,0 C 99 % 1035,1 hPa 0,0 l/m 0,0 km/h (0 Bft) N-NO 22 0 min 0,000 mm 0,0 UV-I 0 W/m -0,1 C 0,0 C 1,6 km/h (1 Bft) 96,52 %
07.12.2015 21:35 0,1 C 99 % 1035,1 hPa 0,0 l/m 1,3 km/h (1 Bft) N-NO 22 0 min 0,000 mm 0,0 UV-I 0 W/m -0,0 C 0,1 C 3,2 km/h (1 Bft) 97,25 %
07.12.2015 21:40 0,1 C 99 % 1035,1 hPa 0,0 l/m 2,2 km/h (1 Bft) O 101 0 min 0,000 mm 0,0 UV-I 0 W/m -0,0 C 0,1 C 3,2 km/h (1 Bft) 95,73 %
07.12.2015 21:45 0,2 C 99 % 1035,1 hPa 0,0 l/m 1,1 km/h (1 Bft) O 101 0 min 0,000 mm 0,0 UV-I 0 W/m 0,1 C 0,2 C 3,2 km/h (1 Bft) 95,16 %
07.12.2015 21:50 0,2 C 98 % 1035,1 hPa 0,0 l/m 1,2 km/h (1 Bft) O 101 0 min 0,000 mm 0,0 UV-I 0 W/m -0,1 C 0,2 C 3,2 km/h (1 Bft) 94,92 %
07.12.2015 21:55 0,4 C 99 % 1035,0 hPa 0,0 l/m 0,3 km/h (0 Bft) O 101 0 min 0,000 mm 0,0 UV-I 0 W/m 0,3 C 0,4 C 3,2 km/h (1 Bft) 94,74 %
07.12.2015 22:00 0,6 C 98 % 1035,0 hPa 0,0 l/m 1,6 km/h (1 Bft) O 94 0 min 0,000 mm 0,0 UV-I 0 W/m 0,3 C 0,6 C 3,2 km/h (1 Bft) 99,15 %
07.12.2015 22:05 0,7 C 99 % 1034,9 hPa 0,0 l/m 1,0 km/h (0 Bft) O 90 0 min 0,000 mm 0,0 UV-I 0 W/m 0,6 C 0,7 C 3,2 km/h (1 Bft) 100,00 %
07.12.2015 22:10 0,7 C 99 % 1034,9 hPa 0,0 l/m 1,0 km/h (0 Bft) O-NO 76 0 min 0,000 mm 0,0 UV-I 0 W/m 0,6 C 0,7 C 3,2 km/h (1 Bft) 98,20 %
07.12.2015 22:15 0,7 C 99 % 1034,9 hPa 0,0 l/m 1,6 km/h (1 Bft) NO 53 0 min 0,000 mm 0,0 UV-I 0 W/m 0,6 C 0,7 C 4,8 km/h (1 Bft) 98,43 %
07.12.2015 22:20 0,9 C 99 % 1034,9 hPa 0,0 l/m 4,3 km/h (1 Bft) O-NO 57 0 min 0,000 mm 0,0 UV-I 0 W/m 0,8 C 0,9 C 8,0 km/h (2 Bft) 100,00 %
07.12.2015 22:25 1,1 C 99 % 1035,0 hPa 0,0 l/m 6,0 km/h (2 Bft) O-NO 76 0 min 0,000 mm 0,0 UV-I 0 W/m 1,0 C 1,1 C 11,3 km/h (2 Bft) 99,17 %
07.12.2015 22:30 1,1 C 99 % 1035,0 hPa 0,0 l/m 7,2 km/h (2 Bft) O 88 0 min 0,000 mm 0,0 UV-I 0 W/m 1,0 C 0,3 C 11,3 km/h (2 Bft) 99,11 %
07.12.2015 22:35 1,1 C 99 % 1035,0 hPa 0,0 l/m 7,7 km/h (2 Bft) O 85 0 min 0,000 mm 0,0 UV-I 0 W/m 1,0 C -0,2 C 14,5 km/h (3 Bft) 99,10 %
07.12.2015 22:40 1,1 C 99 % 1035,0 hPa 0,0 l/m 7,6 km/h (2 Bft) O-NO 78 0 min 0,000 mm 0,0 UV-I 0 W/m 1,0 C -0,1 C 12,9 km/h (3 Bft) 100,00 %
07.12.2015 22:45 1,1 C 99 % 1035,0 hPa 0,0 l/m 6,9 km/h (2 Bft) O-NO 72 0 min 0,000 mm 0,0 UV-I 0 W/m 1,0 C 0,6 C 11,3 km/h (2 Bft) 98,29 %
07.12.2015 22:50 1,2 C 99 % 1035,1 hPa 0,0 l/m 6,2 km/h (2 Bft) O-NO 77 0 min 0,000 mm 0,0 UV-I 0 W/m 1,1 C 1,2 C 12,9 km/h (3 Bft) 99,15 %
07.12.2015 22:55 1,3 C 99 % 1035,1 hPa 0,0 l/m 8,2 km/h (2 Bft) NO 43 0 min 0,000 mm 0,0 UV-I 0 W/m 1,2 C -0,5 C 16,1 km/h (3 Bft) 100,00 %
07.12.2015 23:00 1,4 C 99 % 1035,1 hPa 0,0 l/m 9,6 km/h (2 Bft) O-NO 78 0 min 0,000 mm 0,0 UV-I 0 W/m 1,3 C -1,6 C 16,1 km/h (3 Bft) 99,17 %
07.12.2015 23:05 1,5 C 99 % 1035,1 hPa 0,0 l/m 10,6 km/h (2 Bft) O-NO 61 0 min 0,000 mm 0,0 UV-I 0 W/m 1,4 C -2,3 C 16,1 km/h (3 Bft) 100,00 %
07.12.2015 23:10 1,6 C 99 % 1035,0 hPa 0,0 l/m 8,3 km/h (2 Bft) O-NO 76 0 min 0,000 mm 0,0 UV-I 0 W/m 1,5 C -0,2 C 16,1 km/h (3 Bft) 100,00 %
07.12.2015 23:15 1,7 C 99 % 1035,1 hPa 0,0 l/m 5,7 km/h (1 Bft) O-NO 71 0 min 0,000 mm 0,0 UV-I 0 W/m 1,6 C 1,7 C 16,1 km/h (3 Bft) 100,00 %
07.12.2015 23:20 1,8 C 99 % 1035,1 hPa 0,0 l/m 8,2 km/h (2 Bft) O-NO 73 0 min 0,000 mm 0,0 UV-I 0 W/m 1,7 C 0,1 C 12,9 km/h (3 Bft) 95,97 %
07.12.2015 23:25 1,8 C 99 % 1035,2 hPa 0,0 l/m 5,8 km/h (2 Bft) O-NO 71 0 min 0,000 mm 0,0 UV-I 0 W/m 1,7 C 1,8 C 8,0 km/h (2 Bft) 93,16 %
07.12.2015 23:30 1,9 C 99 % 1035,1 hPa 0,0 l/m 6,3 km/h (2 Bft) NO 55 0 min 0,000 mm 0,0 UV-I 0 W/m 1,8 C 1,9 C 9,7 km/h (2 Bft) 96,52 %
07.12.2015 23:35 1,9 C 99 % 1035,0 hPa 0,0 l/m 4,9 km/h (1 Bft) N-NO 22 0 min 0,000 mm 0,0 UV-I 0 W/m 1,8 C 1,9 C 8,0 km/h (2 Bft) 98,26 %
07.12.2015 23:40 1,9 C 99 % 1034,9 hPa 0,0 l/m 4,2 km/h (1 Bft) NO 41 0 min 0,000 mm 0,0 UV-I 0 W/m 1,8 C 1,9 C 8,0 km/h (2 Bft) 96,67 %
07.12.2015 23:45 1,9 C 99 % 1034,8 hPa 0,0 l/m 6,5 km/h (2 Bft) N-NO 33 0 min 0,000 mm 0,0 UV-I 0 W/m 1,8 C 1,8 C 9,7 km/h (2 Bft) 97,32 %
07.12.2015 23:50 1,9 C 99 % 1034,8 hPa 0,0 l/m 7,4 km/h (2 Bft) NO 49 0 min 0,000 mm 0,0 UV-I 0 W/m 1,8 C 0,9 C 11,3 km/h (2 Bft) 98,00 %
07.12.2015 23:55 2,1 C 99 % 1034,8 hPa 0,0 l/m 6,8 km/h (2 Bft) NO 49 0 min 0,000 mm 0,0 UV-I 0 W/m 2,0 C 1,7 C 11,3 km/h (2 Bft) 99,29 %
_ Min-Zeit 03:05 15:10 00:00 - 00:40 - - - - - - 03:05 23:05 02:25 09:50
Minimum _ -1,2 C 91 % 1034,5 hPa - 0,0 km/h (0 Bft) - - - - - - -1,3 C -2,3 C 0,0 km/h (0 Bft) 73,68 %
_ Max-Zeit 14:55 00:00 09:30 00:00 23:05 - - 10:25 12:00 11:15 11:50 14:50 14:55 22:55 00:50
Maximum _ 7,4 C 99 % 1037,2 hPa 0,0 l/m 10,6 km/h
O-NO (2 Bft)
- - 10 min 0,102 mm 0,7 UV-I 333 W/m 6,4 C 7,4 C 16,1 km/h
O-NO (3 Bft)
100,00 %
Durchschnitt _ 1,7 C 98 % 1035,6 hPa #0,0 l/m 2,1 km/h (1 Bft) O-NO - #5:30 h #0,508 mm 0,6 UV-I 152 W/m 1,4 C 1,6 C 4,7 km/h (1 Bft) 98,13 %